Location: Marcé
(47.5801°N, 0.3280°W)
Time: 12:02:38
(UTC+01:00)

Vanguard 3 - Pass Details

Date: 04 December 2021
Orbit: 508 x 3260 km, 33.3° (Epoch: 17 January)

Event Time Altitude Azimuth Distance (km) Brightness Sun altitude
Exits shadow 03:17:40 28° 162° (SSE) 4,808 10.8 -51.4°
Maximum altitude 03:21:09 30° 147° (SSE) 4,701 10.9 -50.8°
Drops below altitude 10° 03:35:23 10° 96° (E) 5,660 11.8 -48.7°
Sets 03:40:03 0° 87° (E) 6,363 12.3 -47.9°
